[Iaude] MPEC A84: 2019 AM3 [a=2.32,e=0.78,i=26.2,H=19.4]

mpec at mpcdb1.cfa.harvard.edu mpec at mpcdb1.cfa.harvard.edu
Sun Jan 6 16:37:17 EST 2019


M.P.E.C. 2019-A84                                Issued 2019 Jan. 6, 21:31 UT
 
     The Minor Planet Electronic Circulars contain information on unusual
         minor planets and routine data on comets.  They are published
    on behalf of Division F of the International Astronomical Union by the
          Minor Planet Center, Smithsonian Astrophysical Observatory,
                          Cambridge, MA 02138, U.S.A.

             Prepared using the Tamkin Foundation Computer Network

                              MPC at CFA.HARVARD.EDU
            URL https://www.minorplanetcenter.net/    ISSN 1523-6714


                                   2019 AM3
 
Observations:
     K19A03M* C2019 01 03.24165023 09 03.61 +48 33 59.4          18.54oVEA084T08
     K19A03M  C2019 01 03.24682023 09 08.35 +48 34 43.7          18.26oVEA084T08
     K19A03M  C2019 01 03.25008123 09 11.26 +48 35 11.4          18.82oVEA084T08
     K19A03M  C2019 01 03.25425523 09 15.11 +48 35 46.2          18.51oVEA084T08
     K19A03M  C2019 01 03.25752123 09 17.98 +48 36 14.2          18.53oVEA084T08
     K19A03M  C2019 01 03.26172523 09 21.78 +48 36 50.3          18.41oVEA084T08
     K19A03M  C2019 01 03.26959623 09 28.98 +48 37 57.1          18.44oVEA084T08
     K19A03M  C2019 01 03.41659 23 11 45.15 +48 58 49.2          19.2 RrEA084P93
     K19A03M  C2019 01 03.42352 23 11 51.47 +48 59 48.0          18.8 RrEA084P93
     K19A03M  C2019 01 03.42582 23 11 53.55 +49 00 06.1          18.8 RrEA084P93
     K19A03M  C2019 01 03.42813 23 11 55.58 +49 00 26.4          19.5 RrEA084P93
     K19A03M KC2019 01 03.71487 23 16 21.14 +49 39 55.9                VEA084204
     K19A03M KC2019 01 03.72305 23 16 28.55 +49 41 02.2          18.8 GVEA084204
     K19A03M KC2019 01 03.72457 23 16 29.53 +49 41 12.2          18.2 RoEA084K88
     K19A03M KC2019 01 03.72549 23 16 30.38 +49 41 19.4          17.8 RoEA084K88
     K19A03M KC2019 01 03.73680 23 16 41.06 +49 42 52.4                VEA084204
     K19A03M KC2019 01 03.75424623 16 56.71 +49 45 11.8          18.8 GVEA084L01
     K19A03M KC2019 01 03.75581823 16 58.14 +49 45 24.1          18.8 GVEA084L01
     K19A03M KC2019 01 03.75660523 16 58.85 +49 45 30.6          19.0 GVEA084L01
     K19A03M KC2019 01 03.76997723 17 11.19 +49 47 17.6                VEA084587
     K19A03M KC2019 01 03.77356523 17 14.42 +49 47 46.4          19.0 GVEA084587
     K19A03M KC2019 01 03.77643523 17 17.07 +49 48 09.7                VEA084587
     K19A03M KC2019 01 03.96320 23 20 08.82 +50 12 29.9          18.1  qEA084104
     K19A03M KC2019 01 03.97139 23 20 16.52 +50 13 32.9          18.2  qEA084104
     K19A03M KC2019 01 04.06035023 21 39.16 +50 25 27.1          18.8 VuEA084H21
     K19A03M KC2019 01 04.07640223 21 53.81 +50 27 29.1          18.8 VuEA084H21
     K19A03M KC2019 01 04.78998123 32 55.78 +51 54 18.1          18.4 GVEA084J95
     K19A03M KC2019 01 04.79224023 32 57.84 +51 54 33.2          18.8 GVEA084J95
     K19A03M KC2019 01 04.79500023 33 00.39 +51 54 52.3          18.7 GVEA084J95
     K19A03M KC2019 01 04.79653223 33 01.80 +51 55 02.8          18.7 GVEA084J95
     K19A03M KC2019 01 04.86278 23 34 02.09 +52 02 32.5          17.6 GVEA084K38
     K19A03M KC2019 01 04.87148 23 34 10.20 +52 03 30.9          19.1 GVEA084K38
     K19A03M KC2019 01 04.88193 23 34 19.74 +52 04 42.1          18.7 GVEA084K38
     K19A03M  C2019 01 05.07218 23 37 17.26 +52 26 20.5          18.7 GVEA084I52
     K19A03M  C2019 01 05.07505 23 37 19.87 +52 26 39.5          18.8 GVEA084I52
     K19A03M  C2019 01 05.07791 23 37 22.47 +52 26 58.1          18.5 GVEA084I52
     K19A03M  C2019 01 05.08036 23 37 24.70 +52 27 14.4          18.5 GVEA084I52
     K19A03M KC2019 01 05.70968 23 47 07.83 +53 33 13.2          18.5 GVEA084595
     K19A03M KC2019 01 05.71403 23 47 11.77 +53 33 38.7          18.8 GVEA084595
     K19A03M KC2019 01 05.71838 23 47 15.71 +53 34 04.9          19.0 GVEA084595
     K19A03M KC2019 01 05.77119 23 48 03.83 +53 39 18.4          18.4 VqEA084C77
     K19A03M KC2019 01 05.77609 23 48 08.41 +53 39 46.5          19.2 VqEA084C77
     K19A03M KC2019 01 05.78116 23 48 13.06 +53 40 16.5          19.2 VqEA084C77
     K19A03M KC2019 01 06.08172323 52 49.66 +54 09 12.7          19.2 VuEA084H21
     K19A03M KC2019 01 06.08530923 52 52.91 +54 09 32.8          19.1 VuEA084H21
 
Observer details:
104 San Marcello Pistoiese.  Observers P. Bacci, M. Maestripieri.  Measurers
    P. Bacci, L. Tesi, G. Fagioli.  0.60-m reflector + CCD.
204 Schiaparelli Observatory.  Observer L. Buzzi.  0.84-m f/3.5 reflector +
    CCD.
587 Sormano.  Observers A. Fumagalli, M. Calcagno, F. Manca, P. Sicoli,
    A. Testa.  Measurer F. Manca.  0.5-m f/6.8 reflector + CCD.
595 Farra dIsonzo.  Observers E. Pettarin, F. Piani.  Measurer
    E. Pettarin.  0.61-m f/4.5 reflector + CCD.
C77 Bernezzo Observatory.  Observer A. Mantero.  0.25-m f/4.0 reflector + CCD.
H21 Astronomical Research Observatory, Westfield.  Observer R. Holmes.
    Measurers S. Foglia, L. Buzzi, T. Linder, R. Holmes.  0.61-m f/4.5
    astrograph + CCD.
I52 Steward Observatory, Mt. Lemmon Station.  Observer H. Groeller.
    Measurers B. M. Africano, E. J. Christensen, G. A. Farneth, D. C. Fuls,
    A. R. Gibbs, A. D. Grauer, H. Groeller, R. A. Kowalski, S. M. Larson,
    G. J. Leonard, R. L. Seaman, F. C. Shelly.  1.0-m reflector + CCD.
J95 Great Shefford.  Observer P. Birtwhistle.  0.41-m f/6.3
    Schmidt-Cassegrain + CCD.
K38 M57 Observatory, Saltrio.  Observer G. Baj.  0.3-m f/5.5 Ritchey-Chretien
    + CCD.
K88 GINOP-KHK, Piszkesteto.  Observer A. Ordasi.  Measurer K. Sarneczky.
    0.60-m Schmidt + CCD.
L01 Visnjan Observatory, Tican.  Observers K. Korlevic, P. Kukic, A. Radica.
    Measurer K. Korlevic.  1.0-m f/2.9 reflector + CCD.
P93 Space Tracking and Communications Center, JAXA.  Observers T. Nimura,
    A. Asami.  1.0-m f/3.0 reflector + CCD.
T08 ATLAS-MLO, Mauna Loa.  Observers L. Denneau, J. Tonry, A. Heinze,
    H. Weiland.  Measurers L. Denneau, J. Tonry, A. Heinze, H. Weiland,
    B. Stalder.  0.5-m reflector + CCD.
 
Orbital elements:
2019 AM3                                                 Earth MOID = 0.0686 AU
Epoch 2019 Apr. 27.0 TT = JDT 2458600.5                 MPC
M  44.62667              (2000.0)            P               Q
n   0.27854649     Peri.  286.47030     +0.90570926     +0.05455969
a   2.3220465      Node    71.99464     +0.17204349     +0.85902165
e   0.7762502      Incl.   26.23286     -0.38741679     +0.50902362
P   3.54           H   19.4           G   0.15           U   8
Residuals in seconds of arc
190103 T08  0.4-  0.3+    190103 204  0.3+  0.2-    190104 K38  0.1-  0.2-
190103 T08  0.3+  0.5+    190103 L01  0.1+  0.2+    190104 K38  0.7+  0.3-
190103 T08  0.1-  0.4+    190103 L01  0.1+  0.1-    190104 K38  0.2-  0.7+
190103 T08  0.6+  0.4-    190103 L01  0.0   0.1+    190105 I52  0.0   0.1-
190103 T08  0.3-  0.2-    190103 587  0.1-  0.1-    190105 I52  0.0   0.1+
190103 T08  0.3-  0.2+    190103 587  0.5-  0.1+    190105 I52  0.0   0.0
190103 T08  0.3+  0.1+    190103 587  0.1-  0.5+    190105 I52  0.0   0.2+
190103 P93  0.3-  0.9-    190103 104  0.7-  0.6+    190105 595  0.1+  0.5+
190103 P93  0.2+  0.0     190103 104  0.1+  0.5+    190105 595  0.0   0.1+
190103 P93  0.1+  1.1-    190104 H21  0.1+  0.2+    190105 595  0.1-  0.4+
190103 P93  0.5-  0.1-    190104 H21  0.1-  0.2+    190105 C77  1.1-  0.5+
190103 204  0.2+  0.3-    190104 J95  0.0   0.0     190105 C77  0.0   0.2-
190103 204  0.1+  0.1+    190104 J95  0.1-  0.4-    190105 C77  0.4+  0.2+
190103 K88  0.1-  0.9+    190104 J95  0.2+  0.2-    190106 H21  0.1-  0.0
190103 K88  0.1+  0.7+    190104 J95  0.2+  0.2-    190106 H21  0.2-  0.2+

Ephemeris:
2019 AM3                 a,e,i = 2.32, 0.78, 26                  q = 0.5196
Date    TT    R. A. (2000) Decl.     Delta      r     Elong.  Phase     V
2018 12 07    18 55 57.0 -33 45 16   0.4204  0.6514    29.2   132.5    22.5
...
2018 12 22    20 35 11.0 -00 04 42   0.2086  0.8475    44.5   125.6    20.9
...
2018 12 30    22 06 56.9 +35 15 01   0.2041  0.9586    77.1    90.9    19.1
...
2019 01 05    23 36 11.0 +52 18 05   0.2582  1.0415    95.8    69.9    19.0
2019 01 06    23 51 35.8 +54 01 23   0.2700  1.0552    98.0    67.3    19.0
2019 01 07    00 06 52.3 +55 29 06   0.2825  1.0689    99.9    65.0    19.1
...
2019 01 13    01 30 37.3 +60 15 41   0.3658  1.1503   108.0    54.4    19.5
...
2019 01 21    02 52 06.5 +61 10 04   0.4906  1.2564   112.5    46.3    20.1
...
2019 02 05    04 20 00.4 +58 47 42   0.7464  1.4465   112.5    39.0    21.1

A. U. Tomatic                (C) Copyright 2019 MPC           M.P.E.C. 2019-A84



More information about the Iaude mailing list